Location: Boiro
(42.6475°N, 8.8834°W)
Time: 17:48:56
(UTC+01:00)

Tiros 1 despin weight - Pass Details

Date: 09 December 2021
Orbit: 592 x 641 km, 48.2° (Epoch: 20 January)

Event Time Altitude Azimuth Distance (km) Brightness Sun altitude
Rises 19:22:30 0° 287° (WNW) 2,824 ? -14.3°
Reaches altitude 10° 19:25:15 10° 271° (W) 1,920 ? -14.8°
Maximum altitude 19:28:27 20° 224° (SW) 1,389 ? -15.3°
Drops below altitude 10° 19:31:39 10° 177° (S) 1,919 ? -15.9°
Sets 19:34:25 0° 160° (SSE) 2,823 ? -16.4°
